Year,Month,Day,Hour,Minute,Value (Times are PST for windgust in km/hr)
2016,10,14,00,00,35.40
2016,10,14,00,01,25.70
2016,10,14,00,02,19.30
2016,10,14,00,03,17.70
2016,10,14,00,04,22.50
2016,10,14,00,05,25.70
2016,10,14,00,06,20.90
2016,10,14,00,07,19.30
2016,10,14,00,08,16.10
2016,10,14,00,09,22.50
2016,10,14,00,10,14.50
2016,10,14,00,11,16.10
2016,10,14,00,12,14.50
2016,10,14,00,13,17.70
2016,10,14,00,14,17.70
2016,10,14,00,15,17.70
2016,10,14,00,16,12.90
2016,10,14,00,17,12.90
2016,10,14,00,18,9.60
2016,10,14,00,19,16.10
2016,10,14,00,20,30.60
2016,10,14,00,21,22.50
2016,10,14,00,22,16.10
2016,10,14,00,23,22.50
2016,10,14,00,24,16.10
2016,10,14,00,25,14.50
2016,10,14,00,26,16.10
2016,10,14,00,27,19.30
2016,10,14,00,28,19.30
2016,10,14,00,29,24.20
2016,10,14,00,30,16.10
2016,10,14,00,31,17.70
2016,10,14,00,32,24.20
2016,10,14,00,33,24.20
2016,10,14,00,34,24.20
2016,10,14,00,35,20.90
2016,10,14,00,36,25.70
2016,10,14,00,37,20.90
2016,10,14,00,38,14.50
2016,10,14,00,39,16.10
2016,10,14,00,40,19.30
2016,10,14,00,41,33.80
2016,10,14,00,42,20.90
2016,10,14,00,43,30.60
2016,10,14,00,44,25.70
2016,10,14,00,45,16.10
2016,10,14,00,46,17.70
2016,10,14,00,47,16.10
2016,10,14,00,48,25.70
2016,10,14,00,49,19.30
2016,10,14,00,50,16.10
2016,10,14,00,51,17.70
2016,10,14,00,52,24.20
2016,10,14,00,53,22.50
2016,10,14,00,54,20.90
2016,10,14,00,55,27.40
2016,10,14,00,56,32.20
2016,10,14,00,57,27.40
2016,10,14,00,58,29.00
2016,10,14,00,59,30.60
2016,10,14,01,00,22.50
2016,10,14,01,01,16.10
2016,10,14,01,02,11.30
2016,10,14,01,03,17.70
2016,10,14,01,04,14.50
2016,10,14,01,05,17.70
2016,10,14,01,06,11.30
2016,10,14,01,07,14.50
2016,10,14,01,08,11.30
2016,10,14,01,09,11.30
2016,10,14,01,10,14.50
2016,10,14,01,11,14.50
2016,10,14,01,12,8.10
2016,10,14,01,13,12.90
2016,10,14,01,14,16.10
2016,10,14,01,15,12.90
2016,10,14,01,16,27.40
2016,10,14,01,17,27.40
2016,10,14,01,18,20.90
2016,10,14,01,19,19.30
2016,10,14,01,20,20.90
2016,10,14,01,21,19.30
2016,10,14,01,22,25.70
2016,10,14,01,23,27.40
2016,10,14,01,24,17.70
2016,10,14,01,25,17.70
2016,10,14,01,26,16.10
2016,10,14,01,27,16.10
2016,10,14,01,28,11.30
2016,10,14,01,29,20.90
2016,10,14,01,30,25.70
2016,10,14,01,31,19.30
2016,10,14,01,32,25.70
2016,10,14,01,33,20.90
2016,10,14,01,34,16.10
2016,10,14,01,35,20.90
2016,10,14,01,36,24.20
2016,10,14,01,37,19.30
2016,10,14,01,38,24.20
2016,10,14,01,39,22.50
2016,10,14,01,40,14.50
2016,10,14,01,41,16.10
2016,10,14,01,42,16.10
2016,10,14,01,43,6.40
2016,10,14,01,44,12.90
2016,10,14,01,45,12.90
2016,10,14,01,46,6.40
2016,10,14,01,47,9.60
2016,10,14,01,48,9.60
2016,10,14,01,49,9.60
2016,10,14,01,50,11.30
2016,10,14,01,51,14.50
2016,10,14,01,52,16.10
2016,10,14,01,53,16.10
2016,10,14,01,54,17.70
2016,10,14,01,55,12.90
2016,10,14,01,56,9.60
2016,10,14,01,57,12.90
2016,10,14,01,58,16.10
2016,10,14,01,59,14.50
2016,10,14,02,00,17.70
2016,10,14,02,01,22.50
2016,10,14,02,02,19.30
2016,10,14,02,03,14.50
2016,10,14,02,04,14.50
2016,10,14,02,05,17.70
2016,10,14,02,06,27.40
2016,10,14,02,07,29.00
2016,10,14,02,08,30.60
2016,10,14,02,09,27.40
2016,10,14,02,10,25.70
2016,10,14,02,11,29.00
2016,10,14,02,12,20.90
2016,10,14,02,13,19.30
2016,10,14,02,14,35.40
2016,10,14,02,15,29.00
2016,10,14,02,16,22.50
2016,10,14,02,17,20.90
2016,10,14,02,18,17.70
2016,10,14,02,19,33.80
2016,10,14,02,20,29.00
2016,10,14,02,21,19.30
2016,10,14,02,22,33.80
2016,10,14,02,23,32.20
2016,10,14,02,24,29.00
2016,10,14,02,25,27.40
2016,10,14,02,26,20.90
2016,10,14,02,27,19.30
2016,10,14,02,28,27.40
2016,10,14,02,29,30.60
2016,10,14,02,30,17.70
2016,10,14,02,31,11.30
2016,10,14,02,32,16.10
2016,10,14,02,33,14.50
2016,10,14,02,34,20.90
2016,10,14,02,35,16.10
2016,10,14,02,36,14.50
2016,10,14,02,37,16.10
2016,10,14,02,38,8.10
2016,10,14,02,39,12.90
2016,10,14,02,40,11.30
2016,10,14,02,41,11.30
2016,10,14,02,42,17.70
2016,10,14,02,43,9.60
2016,10,14,02,44,9.60
2016,10,14,02,45,11.30
2016,10,14,02,46,20.90
2016,10,14,02,47,9.60
2016,10,14,02,48,9.60
2016,10,14,02,49,12.90
2016,10,14,02,50,11.30
2016,10,14,02,51,9.60
2016,10,14,02,52,8.10
2016,10,14,02,53,9.60
2016,10,14,02,54,4.80
2016,10,14,02,55,6.40
2016,10,14,02,56,9.60
2016,10,14,02,57,9.60
2016,10,14,02,58,11.30
2016,10,14,02,59,6.40
2016,10,14,03,00,3.20
2016,10,14,03,01,6.40
2016,10,14,03,02,4.80
2016,10,14,03,03,4.80
2016,10,14,03,04,4.80
2016,10,14,03,05,8.10
2016,10,14,03,06,9.60
2016,10,14,03,07,9.60
2016,10,14,03,08,6.40
2016,10,14,03,09,6.40
2016,10,14,03,10,9.60
2016,10,14,03,11,8.10
2016,10,14,03,12,9.60
2016,10,14,03,13,6.40
2016,10,14,03,14,6.40
2016,10,14,03,15,6.40
2016,10,14,03,16,6.40
2016,10,14,03,17,1.60
2016,10,14,03,18,3.20
2016,10,14,03,19,1.60
2016,10,14,03,20,1.60
2016,10,14,03,21,3.20
2016,10,14,03,22,1.60
2016,10,14,03,23,3.20
2016,10,14,03,24,4.80
2016,10,14,03,25,3.20
2016,10,14,03,26,4.80
2016,10,14,03,27,6.40
2016,10,14,03,28,8.10
2016,10,14,03,29,8.10
2016,10,14,03,30,8.10
2016,10,14,03,31,9.60
2016,10,14,03,32,12.90
2016,10,14,03,33,12.90
2016,10,14,03,34,9.60
2016,10,14,03,35,14.50
2016,10,14,03,36,8.10
2016,10,14,03,37,6.40
2016,10,14,03,38,4.80
2016,10,14,03,39,4.80
2016,10,14,03,40,3.20
2016,10,14,03,41,4.80
2016,10,14,03,42,4.80
2016,10,14,03,43,4.80
2016,10,14,03,44,9.60
2016,10,14,03,45,8.10
2016,10,14,03,46,8.10
2016,10,14,03,47,8.10
2016,10,14,03,48,8.10
2016,10,14,03,49,4.80
2016,10,14,03,50,8.10
2016,10,14,03,51,8.10
2016,10,14,03,52,12.90
2016,10,14,03,53,20.90
2016,10,14,03,54,16.10
2016,10,14,03,55,16.10
2016,10,14,03,56,16.10
2016,10,14,03,57,9.60
2016,10,14,03,58,14.50
2016,10,14,03,59,8.10
2016,10,14,04,00,8.10
2016,10,14,04,01,6.40
2016,10,14,04,02,6.40
2016,10,14,04,03,11.30
2016,10,14,04,04,11.30
2016,10,14,04,05,11.30
2016,10,14,04,06,12.90
2016,10,14,04,07,8.10
2016,10,14,04,08,9.60
2016,10,14,04,09,8.10
2016,10,14,04,10,4.80
2016,10,14,04,11,4.80
2016,10,14,04,12,9.60
2016,10,14,04,13,9.60
2016,10,14,04,14,6.40
2016,10,14,04,15,11.30
2016,10,14,04,16,8.10
2016,10,14,04,17,9.60
2016,10,14,04,18,11.30
2016,10,14,04,19,11.30
2016,10,14,04,20,8.10
2016,10,14,04,21,9.60
2016,10,14,04,22,14.50
2016,10,14,04,23,12.90
2016,10,14,04,24,12.90
2016,10,14,04,25,11.30
2016,10,14,04,26,12.90
2016,10,14,04,27,11.30
2016,10,14,04,28,11.30
2016,10,14,04,29,16.10
2016,10,14,04,30,16.10
2016,10,14,04,31,14.50
2016,10,14,04,32,9.60
2016,10,14,04,33,12.90
2016,10,14,04,34,12.90
2016,10,14,04,35,16.10
2016,10,14,04,36,14.50
2016,10,14,04,37,14.50
2016,10,14,04,38,19.30
2016,10,14,04,39,14.50
2016,10,14,04,40,16.10
2016,10,14,04,41,17.70
2016,10,14,04,42,14.50
2016,10,14,04,43,20.90
2016,10,14,04,44,16.10
2016,10,14,04,45,16.10
2016,10,14,04,46,12.90
2016,10,14,04,47,12.90
2016,10,14,04,48,14.50
2016,10,14,04,49,12.90
2016,10,14,04,50,9.60
2016,10,14,04,51,8.10
2016,10,14,04,52,8.10
2016,10,14,04,53,8.10
2016,10,14,04,54,6.40
2016,10,14,04,55,4.80
2016,10,14,04,56,11.30
2016,10,14,04,57,6.40
2016,10,14,04,58,11.30
2016,10,14,04,59,4.80
2016,10,14,05,00,6.40
2016,10,14,05,01,4.80
2016,10,14,05,02,4.80
2016,10,14,05,03,3.20
2016,10,14,05,04,9.60
2016,10,14,05,05,11.30
2016,10,14,05,06,6.40
2016,10,14,05,07,8.10
2016,10,14,05,08,8.10
2016,10,14,05,09,8.10
2016,10,14,05,10,4.80
2016,10,14,05,11,4.80
2016,10,14,05,12,3.20
2016,10,14,05,13,3.20
2016,10,14,05,14,3.20
2016,10,14,05,15,3.20
2016,10,14,05,16,4.80
2016,10,14,05,17,4.80
2016,10,14,05,18,3.20
2016,10,14,05,19,4.80
2016,10,14,05,20,3.20
2016,10,14,05,21,1.60
2016,10,14,05,22,3.20
2016,10,14,05,23,1.60
2016,10,14,05,24,4.80
2016,10,14,05,25,4.80
2016,10,14,05,26,4.80
2016,10,14,05,27,3.20
2016,10,14,05,28,3.20
2016,10,14,05,29,3.20
2016,10,14,05,30,3.20
2016,10,14,05,31,3.20
2016,10,14,05,32,3.20
2016,10,14,05,33,4.80
2016,10,14,05,34,3.20
2016,10,14,05,35,6.40
2016,10,14,05,36,3.20
2016,10,14,05,37,4.80
2016,10,14,05,38,3.20
2016,10,14,05,39,8.10
2016,10,14,05,40,4.80
2016,10,14,05,41,8.10
2016,10,14,05,42,8.10
2016,10,14,05,43,9.60
2016,10,14,05,44,12.90
2016,10,14,05,45,11.30
2016,10,14,05,46,11.30
2016,10,14,05,47,11.30
2016,10,14,05,48,14.50
2016,10,14,05,49,11.30
2016,10,14,05,50,16.10
2016,10,14,05,51,16.10
2016,10,14,05,52,17.70
2016,10,14,05,53,16.10
2016,10,14,05,54,14.50
2016,10,14,05,55,14.50
2016,10,14,05,56,16.10
2016,10,14,05,57,12.90
2016,10,14,05,58,17.70
2016,10,14,05,59,14.50
2016,10,14,06,00,24.20
2016,10,14,06,01,17.70
2016,10,14,06,02,14.50
2016,10,14,06,03,19.30
2016,10,14,06,04,14.50
2016,10,14,06,05,11.30
2016,10,14,06,06,14.50
2016,10,14,06,07,16.10
2016,10,14,06,08,16.10
2016,10,14,06,09,16.10
2016,10,14,06,10,16.10
2016,10,14,06,11,19.30
2016,10,14,06,12,12.90
2016,10,14,06,13,19.30
2016,10,14,06,14,14.50
2016,10,14,06,15,11.30
2016,10,14,06,16,14.50
2016,10,14,06,17,14.50
2016,10,14,06,18,12.90
2016,10,14,06,19,16.10
2016,10,14,06,20,17.70
2016,10,14,06,21,17.70
2016,10,14,06,22,14.50
2016,10,14,06,23,16.10
2016,10,14,06,24,12.90
2016,10,14,06,25,17.70
2016,10,14,06,26,11.30
2016,10,14,06,27,4.80
2016,10,14,06,28,8.10
2016,10,14,06,29,8.10
2016,10,14,06,30,11.30
2016,10,14,06,31,8.10
2016,10,14,06,32,8.10
2016,10,14,06,33,9.60
2016,10,14,06,34,12.90
2016,10,14,06,35,6.40
2016,10,14,06,36,6.40
2016,10,14,06,37,8.10
2016,10,14,06,38,9.60
2016,10,14,06,39,8.10
2016,10,14,06,40,9.60
2016,10,14,06,41,6.40
2016,10,14,06,42,3.20
2016,10,14,06,43,6.40
2016,10,14,06,44,3.20
2016,10,14,06,45,3.20
2016,10,14,06,46,4.80
2016,10,14,06,47,1.60
2016,10,14,06,48,3.20
2016,10,14,06,49,4.80
2016,10,14,06,50,3.20
2016,10,14,06,51,3.20
2016,10,14,06,52,6.40
2016,10,14,06,53,6.40
2016,10,14,06,54,4.80
2016,10,14,06,55,8.10
2016,10,14,06,56,8.10
2016,10,14,06,57,8.10
2016,10,14,06,58,8.10
2016,10,14,06,59,4.80
2016,10,14,07,00,4.80
2016,10,14,07,01,3.20
2016,10,14,07,02,4.80
2016,10,14,07,03,1.60
2016,10,14,07,04,1.60
2016,10,14,07,05,1.60
2016,10,14,07,06,1.60
2016,10,14,07,07,4.80
2016,10,14,07,08,3.20
2016,10,14,07,09,1.60
2016,10,14,07,11,3.20
2016,10,14,07,12,3.20
2016,10,14,07,13,3.20
2016,10,14,07,14,3.20
2016,10,14,07,15,1.60
2016,10,14,07,18,1.60
2016,10,14,07,19,3.20
2016,10,14,07,20,3.20
2016,10,14,07,21,4.80
2016,10,14,07,22,4.80
2016,10,14,07,23,3.20
2016,10,14,07,24,1.60
2016,10,14,07,25,3.20
2016,10,14,07,26,1.60
2016,10,14,07,27,1.60
2016,10,14,07,28,3.20
2016,10,14,07,29,3.20
2016,10,14,07,30,4.80
2016,10,14,07,31,4.80
2016,10,14,07,32,8.10
2016,10,14,07,33,8.10
2016,10,14,07,34,11.30
2016,10,14,07,35,20.90
2016,10,14,07,36,12.90
2016,10,14,07,37,20.90
2016,10,14,07,38,16.10
2016,10,14,07,39,16.10
2016,10,14,07,40,14.50
2016,10,14,07,41,17.70
2016,10,14,07,42,17.70
2016,10,14,07,43,14.50
2016,10,14,07,44,22.50
2016,10,14,07,45,22.50
2016,10,14,07,46,19.30
2016,10,14,07,47,19.30
2016,10,14,07,48,12.90
2016,10,14,07,49,9.60
2016,10,14,07,50,17.70
2016,10,14,07,51,9.60
2016,10,14,07,52,11.30
2016,10,14,07,53,11.30
2016,10,14,07,54,11.30
2016,10,14,07,55,14.50
2016,10,14,07,56,11.30
2016,10,14,07,57,9.60
2016,10,14,07,58,6.40
2016,10,14,07,59,4.80
2016,10,14,08,00,8.10
2016,10,14,08,01,9.60
2016,10,14,08,02,6.40
2016,10,14,08,03,4.80
2016,10,14,08,04,6.40
2016,10,14,08,05,3.20
2016,10,14,08,06,6.40
2016,10,14,08,07,8.10
2016,10,14,08,08,4.80
2016,10,14,08,09,4.80
2016,10,14,08,10,4.80
2016,10,14,08,11,4.80
2016,10,14,08,12,8.10
2016,10,14,08,13,6.40
2016,10,14,08,14,4.80
2016,10,14,08,15,1.60
2016,10,14,08,16,3.20
2016,10,14,08,17,3.20
2016,10,14,08,18,4.80
2016,10,14,08,19,6.40
2016,10,14,08,20,8.10
2016,10,14,08,21,8.10
2016,10,14,08,22,8.10
2016,10,14,08,23,4.80
2016,10,14,08,24,3.20
2016,10,14,08,25,4.80
2016,10,14,08,26,8.10
2016,10,14,08,27,6.40
2016,10,14,08,28,4.80
2016,10,14,08,29,8.10
2016,10,14,08,30,14.50
2016,10,14,08,31,11.30
2016,10,14,08,32,12.90
2016,10,14,08,33,14.50
2016,10,14,08,34,14.50
2016,10,14,08,35,14.50
2016,10,14,08,36,14.50
2016,10,14,08,37,14.50
2016,10,14,08,38,20.90
2016,10,14,08,39,20.90
2016,10,14,08,40,22.50
2016,10,14,08,41,16.10
2016,10,14,08,42,12.90
2016,10,14,08,43,17.70
2016,10,14,08,44,12.90
2016,10,14,08,45,17.70
2016,10,14,08,46,16.10
2016,10,14,08,47,11.30
2016,10,14,08,48,17.70
2016,10,14,08,49,16.10
2016,10,14,08,50,14.50
2016,10,14,08,51,14.50
2016,10,14,08,52,19.30
2016,10,14,08,53,22.50
2016,10,14,08,54,22.50
2016,10,14,08,55,29.00
2016,10,14,08,56,22.50
2016,10,14,08,57,25.70
2016,10,14,08,58,16.10
2016,10,14,08,59,14.50
2016,10,14,09,00,16.10
2016,10,14,09,01,17.70
2016,10,14,09,02,8.10
2016,10,14,09,03,9.60
2016,10,14,09,04,11.30
2016,10,14,09,05,14.50
2016,10,14,09,06,17.70
2016,10,14,09,07,16.10
2016,10,14,09,08,11.30
2016,10,14,09,09,12.90
2016,10,14,09,10,11.30
2016,10,14,09,11,14.50
2016,10,14,09,12,16.10
2016,10,14,09,13,25.70
2016,10,14,09,14,19.30
2016,10,14,09,15,16.10
2016,10,14,09,16,20.90
2016,10,14,09,17,19.30
2016,10,14,09,18,19.30
2016,10,14,09,19,17.70
2016,10,14,09,20,22.50
2016,10,14,09,21,27.40
2016,10,14,09,22,16.10
2016,10,14,09,23,16.10
2016,10,14,09,24,16.10
2016,10,14,09,25,14.50
2016,10,14,09,26,16.10
2016,10,14,09,27,14.50
2016,10,14,09,28,20.90
2016,10,14,09,29,17.70
2016,10,14,09,30,22.50
2016,10,14,09,31,22.50
2016,10,14,09,32,16.10
2016,10,14,09,33,22.50
2016,10,14,09,34,14.50
2016,10,14,09,35,17.70
2016,10,14,09,36,24.20
2016,10,14,09,37,20.90
2016,10,14,09,38,19.30
2016,10,14,09,39,20.90
2016,10,14,09,40,19.30
2016,10,14,09,41,27.40
2016,10,14,09,42,35.40
2016,10,14,09,43,17.70
2016,10,14,09,44,22.50
2016,10,14,09,45,17.70
2016,10,14,09,46,20.90
2016,10,14,09,47,16.10
2016,10,14,09,48,35.40
2016,10,14,09,49,27.40
2016,10,14,09,50,22.50
2016,10,14,09,51,29.00
2016,10,14,09,52,22.50
2016,10,14,09,53,20.90
2016,10,14,09,54,16.10
2016,10,14,09,55,30.60
2016,10,14,09,56,35.40
2016,10,14,09,57,30.60
2016,10,14,09,58,24.20
2016,10,14,09,59,32.20
2016,10,14,10,00,32.20
2016,10,14,10,01,40.20
2016,10,14,10,02,45.10
2016,10,14,10,03,38.60
2016,10,14,10,04,35.40
2016,10,14,10,05,37.00
2016,10,14,10,06,43.50
2016,10,14,10,07,35.40
2016,10,14,10,08,33.80
2016,10,14,10,09,35.40
2016,10,14,10,10,30.60
2016,10,14,10,11,40.20
2016,10,14,10,12,40.20
2016,10,14,10,13,37.00
2016,10,14,10,14,33.80
2016,10,14,10,15,37.00
2016,10,14,10,16,40.20
2016,10,14,10,17,25.70
2016,10,14,10,18,30.60
2016,10,14,10,19,24.20
2016,10,14,10,20,33.80
2016,10,14,10,21,29.00
2016,10,14,10,22,29.00
2016,10,14,10,23,25.70
2016,10,14,10,24,32.20
2016,10,14,10,25,30.60
2016,10,14,10,26,29.00
2016,10,14,10,27,30.60
2016,10,14,10,28,22.50
2016,10,14,10,29,17.70
2016,10,14,10,30,14.50
2016,10,14,10,31,30.60
2016,10,14,10,32,29.00
2016,10,14,10,33,19.30
2016,10,14,10,34,25.70
2016,10,14,10,35,37.00
2016,10,14,10,36,33.80
2016,10,14,10,37,25.70
2016,10,14,10,38,35.40
2016,10,14,10,39,35.40
2016,10,14,10,40,25.70
2016,10,14,10,41,29.00
2016,10,14,10,42,25.70
2016,10,14,10,43,27.40
2016,10,14,10,44,20.90
2016,10,14,10,45,20.90
2016,10,14,10,46,22.50
2016,10,14,10,47,32.20
2016,10,14,10,48,29.00
2016,10,14,10,49,33.80
2016,10,14,10,50,40.20
2016,10,14,10,51,40.20
2016,10,14,10,52,27.40
2016,10,14,10,53,33.80
2016,10,14,10,54,27.40
2016,10,14,10,55,32.20
2016,10,14,10,56,41.80
2016,10,14,10,57,22.50
2016,10,14,10,58,32.20
2016,10,14,10,59,33.80
2016,10,14,11,00,41.80
2016,10,14,11,01,35.40
2016,10,14,11,02,35.40
2016,10,14,11,03,33.80
2016,10,14,11,04,27.40
2016,10,14,11,05,37.00
2016,10,14,11,06,25.70
2016,10,14,11,07,25.70
2016,10,14,11,08,37.00
2016,10,14,11,09,32.20
2016,10,14,11,10,27.40
2016,10,14,11,11,29.00
2016,10,14,11,12,20.90
2016,10,14,11,13,29.00
2016,10,14,11,14,29.00
2016,10,14,11,15,32.20
2016,10,14,11,16,35.40
2016,10,14,11,17,40.20
2016,10,14,11,18,29.00
2016,10,14,11,19,24.20
2016,10,14,11,20,22.50
2016,10,14,11,21,33.80
2016,10,14,11,22,29.00
2016,10,14,11,23,32.20
2016,10,14,11,24,24.20
2016,10,14,11,25,40.20
2016,10,14,11,26,40.20
2016,10,14,11,27,32.20
2016,10,14,11,28,24.20
2016,10,14,11,29,37.00
2016,10,14,11,30,35.40
2016,10,14,11,31,17.70
2016,10,14,11,32,33.80
2016,10,14,11,33,40.20
2016,10,14,11,34,30.60
2016,10,14,11,35,46.70
2016,10,14,11,36,40.20
2016,10,14,11,37,41.80
2016,10,14,11,38,46.70
2016,10,14,11,39,49.90
2016,10,14,11,40,35.40
2016,10,14,11,41,37.00
2016,10,14,11,42,35.40
2016,10,14,11,43,40.20
2016,10,14,11,44,41.80
2016,10,14,11,45,41.80
2016,10,14,11,46,40.20
2016,10,14,11,47,30.60
2016,10,14,11,48,41.80
2016,10,14,11,49,48.30
2016,10,14,11,50,30.60
2016,10,14,11,51,33.80
2016,10,14,11,52,35.40
2016,10,14,11,53,32.20
2016,10,14,11,54,37.00
2016,10,14,11,55,24.20
2016,10,14,11,56,40.20
2016,10,14,11,57,45.10
2016,10,14,11,58,45.10
2016,10,14,11,59,25.70
2016,10,14,12,00,43.50
2016,10,14,12,01,40.20
2016,10,14,12,02,29.00
2016,10,14,12,03,37.00
2016,10,14,12,04,43.50
2016,10,14,12,05,35.40
2016,10,14,12,06,45.10
2016,10,14,12,07,51.50
2016,10,14,12,08,30.60
2016,10,14,12,09,35.40
2016,10,14,12,10,29.00
2016,10,14,12,11,43.50
2016,10,14,12,12,43.50
2016,10,14,12,13,43.50
2016,10,14,12,14,29.00
2016,10,14,12,15,27.40
2016,10,14,12,16,48.30
2016,10,14,12,17,38.60
2016,10,14,12,18,27.40
2016,10,14,12,19,35.40
2016,10,14,12,20,40.20
2016,10,14,12,21,33.80
2016,10,14,12,22,27.40
2016,10,14,12,23,38.60
2016,10,14,12,24,33.80
2016,10,14,12,25,49.90
2016,10,14,12,26,46.70
2016,10,14,12,27,38.60
2016,10,14,12,28,37.00
2016,10,14,12,29,48.30
2016,10,14,12,30,49.90
2016,10,14,12,31,40.20
2016,10,14,12,32,48.30
2016,10,14,12,33,38.60
2016,10,14,12,34,37.00
2016,10,14,12,35,41.80
2016,10,14,12,36,43.50
2016,10,14,12,37,40.20
2016,10,14,12,38,54.70
2016,10,14,12,39,27.40
2016,10,14,12,40,41.80
2016,10,14,12,41,56.30
2016,10,14,12,42,45.10
2016,10,14,12,43,53.10
2016,10,14,12,44,46.70
2016,10,14,12,45,38.60
2016,10,14,12,46,32.20
2016,10,14,12,47,49.90
2016,10,14,12,48,30.60
2016,10,14,12,49,51.50
2016,10,14,12,50,49.90
2016,10,14,12,51,53.10
2016,10,14,12,52,38.60
2016,10,14,12,53,41.80
2016,10,14,12,54,43.50
2016,10,14,12,55,46.70
2016,10,14,12,56,51.50
2016,10,14,12,57,46.70
2016,10,14,12,58,40.20
2016,10,14,12,59,35.40
2016,10,14,13,00,33.80
2016,10,14,13,01,48.30
2016,10,14,13,02,41.80
2016,10,14,13,03,30.60
2016,10,14,13,04,54.70
2016,10,14,13,05,45.10
2016,10,14,13,06,45.10
2016,10,14,13,07,43.50
2016,10,14,13,08,37.00
2016,10,14,13,09,46.70
2016,10,14,13,10,38.60
2016,10,14,13,11,49.90
2016,10,14,13,12,43.50
2016,10,14,13,13,25.70
2016,10,14,13,14,27.40
2016,10,14,13,15,32.20
2016,10,14,13,16,40.20
2016,10,14,13,17,37.00
2016,10,14,13,18,37.00
2016,10,14,13,19,43.50
2016,10,14,13,20,41.80
2016,10,14,13,21,29.00
2016,10,14,13,22,45.10
2016,10,14,13,23,29.00
2016,10,14,13,24,38.60
2016,10,14,13,25,30.60
2016,10,14,13,26,37.00
2016,10,14,13,27,33.80
2016,10,14,13,28,27.40
2016,10,14,13,29,30.60
2016,10,14,13,30,29.00
2016,10,14,13,31,30.60
2016,10,14,13,32,29.00
2016,10,14,13,33,25.70
2016,10,14,13,34,30.60
2016,10,14,13,35,17.70
2016,10,14,13,36,25.70
2016,10,14,13,37,27.40
2016,10,14,13,38,35.40
2016,10,14,13,39,41.80
2016,10,14,13,40,35.40
2016,10,14,13,41,38.60
2016,10,14,13,42,41.80
2016,10,14,13,43,33.80
2016,10,14,13,44,40.20
2016,10,14,13,45,38.60
2016,10,14,13,46,35.40
2016,10,14,13,47,37.00
2016,10,14,13,48,33.80
2016,10,14,13,49,22.50
2016,10,14,13,50,29.00
2016,10,14,13,51,37.00
2016,10,14,13,52,30.60
2016,10,14,13,53,30.60
2016,10,14,13,54,37.00
2016,10,14,13,55,29.00
2016,10,14,13,56,17.70
2016,10,14,13,57,22.50
2016,10,14,13,58,33.80
2016,10,14,13,59,27.40
2016,10,14,14,00,30.60
2016,10,14,14,01,30.60
2016,10,14,14,02,29.00
2016,10,14,14,03,27.40
2016,10,14,14,04,29.00
2016,10,14,14,05,24.20
2016,10,14,14,06,30.60
2016,10,14,14,07,24.20
2016,10,14,14,08,19.30
2016,10,14,14,09,25.70
2016,10,14,14,10,25.70
2016,10,14,14,11,29.00
2016,10,14,14,12,19.30
2016,10,14,14,13,25.70
2016,10,14,14,14,22.50
2016,10,14,14,15,38.60
2016,10,14,14,16,29.00
2016,10,14,14,17,35.40
2016,10,14,14,18,30.60
2016,10,14,14,19,20.90
2016,10,14,14,20,30.60
2016,10,14,14,21,22.50
2016,10,14,14,22,22.50
2016,10,14,14,23,29.00
2016,10,14,14,24,33.80
2016,10,14,14,25,25.70
2016,10,14,14,26,24.20
2016,10,14,14,27,30.60
2016,10,14,14,28,25.70
2016,10,14,14,29,30.60
2016,10,14,14,30,40.20
2016,10,14,14,31,40.20
2016,10,14,14,32,43.50
2016,10,14,14,33,37.00
2016,10,14,14,34,27.40
2016,10,14,14,35,37.00
2016,10,14,14,36,29.00
2016,10,14,14,37,30.60
2016,10,14,14,38,27.40
2016,10,14,14,39,27.40
2016,10,14,14,40,27.40
2016,10,14,14,41,25.70
2016,10,14,14,42,24.20
2016,10,14,14,43,27.40
2016,10,14,14,44,25.70
2016,10,14,14,45,54.70
2016,10,14,14,46,54.70
2016,10,14,14,47,35.40
2016,10,14,14,48,33.80
2016,10,14,14,49,38.60
2016,10,14,14,50,46.70
2016,10,14,14,51,32.20
2016,10,14,14,52,37.00
2016,10,14,14,53,40.20
2016,10,14,14,54,48.30
2016,10,14,14,55,48.30
2016,10,14,14,56,35.40
2016,10,14,14,57,38.60
2016,10,14,14,58,41.80
2016,10,14,14,59,49.90
2016,10,14,15,00,35.40
2016,10,14,15,01,40.20
2016,10,14,15,02,38.60
2016,10,14,15,03,32.20
2016,10,14,15,04,33.80
2016,10,14,15,05,38.60
2016,10,14,15,06,37.00
2016,10,14,15,07,46.70
2016,10,14,15,08,33.80
2016,10,14,15,09,41.80
2016,10,14,15,10,35.40
2016,10,14,15,11,29.00
2016,10,14,15,12,38.60
2016,10,14,15,13,30.60
2016,10,14,15,14,29.00
2016,10,14,15,15,22.50
2016,10,14,15,16,33.80
2016,10,14,15,17,25.70
2016,10,14,15,18,37.00
2016,10,14,15,19,29.00
2016,10,14,15,20,29.00
2016,10,14,15,21,27.40
2016,10,14,15,22,30.60
2016,10,14,15,23,37.00
2016,10,14,15,24,41.80
2016,10,14,15,25,35.40
2016,10,14,15,26,38.60
2016,10,14,15,27,40.20
2016,10,14,15,28,45.10
2016,10,14,15,29,38.60
2016,10,14,15,30,53.10
2016,10,14,15,31,48.30
2016,10,14,15,32,37.00
2016,10,14,15,33,61.20
2016,10,14,15,34,25.70
2016,10,14,15,35,25.70
2016,10,14,15,36,33.80
2016,10,14,15,37,22.50
2016,10,14,15,38,32.20
2016,10,14,15,39,20.90
2016,10,14,15,40,37.00
2016,10,14,15,41,29.00
2016,10,14,15,42,30.60
2016,10,14,15,43,62.70
2016,10,14,15,44,45.10
2016,10,14,15,45,46.70
2016,10,14,15,46,46.70
2016,10,14,15,47,46.70
2016,10,14,15,48,57.90
2016,10,14,15,49,45.10
2016,10,14,15,50,49.90
2016,10,14,15,51,25.70
2016,10,14,15,52,30.60
2016,10,14,15,53,37.00
2016,10,14,15,54,32.20
2016,10,14,15,55,30.60
2016,10,14,15,56,40.20
2016,10,14,15,57,33.80
2016,10,14,15,58,32.20
2016,10,14,15,59,38.60
2016,10,14,16,00,29.00
2016,10,14,16,01,24.20
2016,10,14,16,02,27.40
2016,10,14,16,03,35.40
2016,10,14,16,04,30.60
2016,10,14,16,05,38.60
2016,10,14,16,06,27.40
2016,10,14,16,07,32.20
2016,10,14,16,08,29.00
2016,10,14,16,09,35.40
2016,10,14,16,10,27.40
2016,10,14,16,11,35.40
2016,10,14,16,12,37.00
2016,10,14,16,13,29.00
2016,10,14,16,14,32.20
2016,10,14,16,15,29.00
2016,10,14,16,16,32.20
2016,10,14,16,17,30.60
2016,10,14,16,18,41.80
2016,10,14,16,19,41.80
2016,10,14,16,20,33.80
2016,10,14,16,21,35.40
2016,10,14,16,22,33.80
2016,10,14,16,23,38.60
2016,10,14,16,24,41.80
2016,10,14,16,25,40.20
2016,10,14,16,26,49.90
2016,10,14,16,27,30.60
2016,10,14,16,28,30.60
2016,10,14,16,29,32.20
2016,10,14,16,30,35.40
2016,10,14,16,31,27.40
2016,10,14,16,32,35.40
2016,10,14,16,33,27.40
2016,10,14,16,34,24.20
2016,10,14,16,35,35.40
2016,10,14,16,36,37.00
2016,10,14,16,37,40.20
2016,10,14,16,38,59.50
2016,10,14,16,39,41.80
2016,10,14,16,40,40.20
2016,10,14,16,41,35.40
2016,10,14,16,42,29.00
2016,10,14,16,43,38.60
2016,10,14,16,44,25.70
2016,10,14,16,45,35.40
2016,10,14,16,46,33.80
2016,10,14,16,47,35.40
2016,10,14,16,48,29.00
2016,10,14,16,49,25.70
2016,10,14,16,50,25.70
2016,10,14,16,51,27.40
2016,10,14,16,52,19.30
2016,10,14,16,53,24.20
2016,10,14,16,54,27.40
2016,10,14,16,55,24.20
2016,10,14,16,56,20.90
2016,10,14,16,57,30.60
2016,10,14,16,58,30.60
2016,10,14,16,59,40.20
2016,10,14,17,00,41.80
2016,10,14,17,01,33.80
2016,10,14,17,02,32.20
2016,10,14,17,03,37.00
2016,10,14,17,04,33.80
2016,10,14,17,05,32.20
2016,10,14,17,06,33.80
2016,10,14,17,07,27.40
2016,10,14,17,08,32.20
2016,10,14,17,09,35.40
2016,10,14,17,10,30.60
2016,10,14,17,11,35.40
2016,10,14,17,12,29.00
2016,10,14,17,13,22.50
2016,10,14,17,14,24.20
2016,10,14,17,15,30.60
2016,10,14,17,16,24.20
2016,10,14,17,17,19.30
2016,10,14,17,18,24.20
2016,10,14,17,19,22.50
2016,10,14,17,20,29.00
2016,10,14,17,21,32.20
2016,10,14,17,22,32.20
2016,10,14,17,23,25.70
2016,10,14,17,24,19.30
2016,10,14,17,25,25.70
2016,10,14,17,26,30.60
2016,10,14,17,27,17.70
2016,10,14,17,28,20.90
2016,10,14,17,29,24.20
2016,10,14,17,30,27.40
2016,10,14,17,31,24.20
2016,10,14,17,32,25.70